Location: Unspecified
(0.0000°N, 0.0000°E)
Time: 17:52:35
(UTC+00:00)

STARLINK 1063 - Pass Details

Date: 23 January 2020
Orbit: 548 x 551 km, 53.0° (Epoch: 17 January)

Event Time Altitude Azimuth Distance (km) Brightness Sun altitude
Exits shadow 05:32:43 - 265° (W) 1,852 5.7 -9.2°
Reaches altitude 10° 05:32:53 10° 267° (W) 1,812 5.7 -9.1°
Maximum altitude 05:35:22 16° 305° (NW) 1,487 5.2 -8.5°
Drops below altitude 10° 05:37:52 10° 342° (NNW) 1,807 5.9 -8.0°
Sets 05:40:50 0° 5° (N) 2,696 7.0 -7.3°
